{"data":{"norad_id":48051,"epoch":"2026-05-24T22:50:27.255840Z","epoch_age_seconds":79457,"freshness":"FRESH","line1":"1 48051U 21025K   26144.95170435  .00000407  00000+0  10795-2 0  9993","line2":"2 48051  87.8951 324.8360 0001537  93.2579 266.8726 13.13468944250541","mean_motion":13.13468944,"eccentricity":0.0001537,"inclination_deg":87.8951,"raan_deg":324.836,"arg_perigee_deg":93.2579,"mean_anomaly_deg":266.8726,"bstar":0.0010795,"rev_number":25054,"period_min":109.63334965611,"perigee_km":1208.6032056796,"apogee_km":1210.9357281276,"semimajor_km":7587.9064669036,"source":"CELESTRAK","updated_at":"2026-05-25T13:38:22.389302Z"}}